Dewpoint
55 55 56 56 56 56 57 57 57 57 58 58 58 58 58 58 59 58 58 58 58 58 58 58 59 59 59 59 59 59 58 55 55 52 50 42 48 59 68 69 69 69 69 60 53 42 33 38 35 42 46 44 44 43 47 47 42 41 41 39 38 37 37 41 39 39 39 40 44 52 54 54 52 54 57 59 59 59 59 59 61 63 63 64 65 67 68 68
55 55 55 56 56 56 57 57 57 57 57 57 58 58 58 58 58 58 58 58 58 58 58 58 59 60 59 59 59 59 58 56 52 51 48 49 64 64 65 68 68 72 66 47 43 40 33 32 36 41 43 41 45 43 45 42 42 38 38 39 37 36 38 41 41 40 41 42 47 51 52 52 52 55 57 56 57 57 58 59 61 61 63 64 66 67 68 68
55 55 55 55 56 56 56 57 57 57 57 57 57 57 58 58 58 58 58 58 57 58 58 58 59 60 60 60 60 59 57 53 51 33 24 61 65 67 67 67 68 75 49 42 43 39 33 34 38 34 36 34 39 38 42 39 39 37 38 37 37 37 38 41 41 40 42 44 45 46 47 52 54 55 56 56 56 57 58 59 60 61 62 64 65 66 67 68
54 55 55 55 55 56 56 56 57 57 57 57 57 57 57 57 58 58 58 58 57 57 57 58 59 60 60 60 60 58 55 52 10 15 22 73 72 71 68 67 70 72 50 45 43 41 41 37 36 34 38 34 34 40 39 36 38 36 37 36 37 37 38 40 41 41 42 43 43 44 50 53 54 55 55 55 56 57 58 60 60 61 62 63 65 66 67 67
54 54 55 55 55 56 56 56 56 56 57 56 57 57 57 57 57 57 57 57 57 57 57 58 59 60 60 59 58 56 51 -2 1 19 28 69 67 69 70 68 71 66 50 46 39 41 39 37 36 38 36 34 35 33 36 39 38 29 34 36 36 38 38 41 41 41 42 43 44 47 51 52 53 54 54 56 55 56 58 60 61 62 63 63 64 65 66 66
54 54 54 54 55 55 55 56 56 56 56 56 56 56 57 57 57 57 57 57 57 57 57 58 59 60 60 60 57 56 24 10 13 22 76 70 68 71 72 69 72 60 51 45 40 40 35 37 33 35 33 34 32 29 30 32 37 33 33 31 37 39 39 41 42 43 44 45 47 48 50 51 52 53 54 55 56 57 60 60 62 63 63 64 65 65 65 66
54 54 54 54 54 54 55 56 55 56 56 56 56 56 56 56 56 56 56 56 57 57 58 58 59 60 60 59 54 50 24 11 27 24 64 69 73 73 71 71 73 53 47 42 40 33 36 32 38 38 37 33 32 28 28 31 31 30 30 36 38 39 40 42 44 46 46 47 48 50 52 51 53 52 54 55 56 59 60 61 62 63 63 64 64 65 65 65
53 53 53 54 54 54 55 55 55 55 55 56 56 56 56 56 56 56 56 56 57 57 57 59 60 60 60 55 40 26 28 20 24 30 59 75 71 72 70 62 54 49 44 39 37 31 37 35 33 39 35 34 32 30 27 23 24 30 33 37 38 41 42 45 46 46 46 47 49 50 50 51 53 53 54 55 57 60 61 62 62 63 63 64 64 64 65 65
53 53 54 53 53 54 55 55 55 55 55 55 56 55 56 56 55 56 56 56 56 57 58 58 60 60 60 56 29 21 17 23 27 26 68 65 66 61 55 51 48 44 40 36 33 34 24 30 37 39 35 31 30 29 27 22 20 33 35 36 41 44 45 46 46 46 47 48 50 49 50 51 52 54 54 56 58 60 61 61 62 62 63 63 64 64 65 65
53 53 53 53 54 54 54 55 55 55 55 55 55 55 55 55 55 56 56 56 56 57 58 59 60 60 56 51 22 19 20 22 40 59 59 62 59 53 46 47 44 40 33 36 37 35 24 33 36 37 34 32 32 27 27 24 21 34 35 41 43 45 45 46 45 47 49 50 51 50 50 51 53 53 52 57 59 61 61 61 62 62 62 63 63 64 65 65
53 53 53 53 53 54 54 55 55 54 55 55 55 55 55 55 55 55 56 56 56 57 58 59 60 58 54 46 24 21 22 48 50 50 56 56 50 47 40 47 43 38 34 33 37 39 37 38 36 33 32 30 30 27 27 24 29 36 43 44 45 46 46 47 48 49 50 51 51 51 51 51 53 53 54 56 59 60 60 60 61 62 62 63 63 64 65 65
52 52 53 53 53 53 54 54 55 55 55 55 55 54 55 55 55 55 55 56 56 57 58 60 60 58 55 42 26 25 28 40 32 37 50 50 47 45 39 40 42 35 34 30 33 38 37 36 33 32 30 28 26 28 24 25 30 40 44 43 45 46 46 47 47 48 50 50 51 51 50 50 51 52 55 57 59 60 60 60 61 61 62 62 63 63 64 64
52 52 52 53 53 53 54 54 54 54 54 54 54 54 54 54 54 54 55 56 57 57 59 60 59 56 51 34 36 34 30 30 30 32 32 45 44 40 38 34 40 38 35 28 25 30 35 33 32 29 29 27 30 24 25 24 26 39 43 43 43 44 45 47 48 49 49 50 51 50 47 48 50 53 56 57 58 59 59 59 60 61 61 62 62 63 63 64
52 52 52 53 53 53 53 53 54 54 54 54 54 54 54 53 54 55 56 57 58 59 59 60 58 56 50 33 33 38 40 37 37 38 37 37 40 40 37 33 35 37 34 28 28 26 29 29 28 26 31 26 23 28 22 23 34 39 42 43 41 42 43 44 46 48 48 49 50 49 46 47 50 53 56 57 58 58 58 59 59 60 60 61 62 62 62 63
52 52 52 52 52 53 53 53 53 53 54 54 53 53 53 53 55 56 57 58 58 58 59 60 57 54 47 39 43 45 63 59 47 44 41 35 36 35 34 33 30 32 32 29 29 30 26 29 27 26 23 28 27 24 23 24 29 34 37 37 40 41 41 41 42 47 46 47 47 47 47 46 50 53 55 56 57 57 57 57 58 58 59 59 60 61 61 62
52 52 52 52 52 53 53 53 53 53 53 53 53 52 54 54 56 57 57 57 59 61 59 57 56 54 45 38 39 53 56 49 48 52 48 36 34 32 33 30 31 31 32 30 29 32 29 27 24 22 29 21 20 21 20 22 26 29 33 33 35 37 39 38 39 44 47 47 46 46 44 48 50 52 54 55 55 56 56 56 56 56 57 58 59 59 60 61
52 52 52 52 52 52 53 53 53 53 53 52 52 53 53 55 57 57 60 59 58 60 59 52 55 55 33 36 42 36 39 43 48 41 46 37 33 33 27 28 28 28 30 29 30 28 27 25 30 27 24 19 18 20 22 25 29 27 33 33 32 37 36 36 40 40 45 45 44 46 46 49 50 52 53 54 54 54 54 54 54 55 56 57 58 58 59 60
52 52 52 52 53 53 53 53 53 53 52 51 51 51 51 55 57 58 56 60 59 57 55 56 54 40 33 41 32 32 43 41 38 37 41 39 34 32 27 26 24 25 23 24 26 24 24 22 20 17 20 25 21 23 22 22 24 26 31 32 32 36 36 37 38 39 43 44 43 45 47 48 49 51 52 52 53 53 53 53 53 54 55 56 57 57 58 59
51 51 51 52 52 53 53 53 52 52 52 51 52 53 55 55 55 52 53 53 51 39 35 46 41 31 24 27 32 34 34 37 36 36 32 33 33 30 29 24 20 19 19 19 18 21 20 19 21 20 16 21 23 22 21 22 26 27 30 31 31 33 35 36 38 41 43 43 42 45 46 46 48 50 51 51 52 51 52 52 53 54 54 55 56 56 57 58
51 51 52 52 53 52 53 53 52 51 51 50 48 48 46 31 30 30 53 53 46 34 30 31 40 37 37 36 35 36 36 36 33 35 33 33 26 24 22 19 21 18 17 17 18 18 18 17 16 15 16 14 19 23 23 23 25 28 29 31 31 33 34 35 37 41 43 42 43 45 46 46 48 49 50 51 51 51 51 53 54 54 54 55 55 55 56 58
52 51 52 52 52 53 52 52 52 51 51 49 48 37 27 29 27 23 29 32 34 37 39 38 36 35 35 36 36 35 34 35 36 36 36 39 30 24 21 15 15 13 15 16 15 22 16 17 16 15 15 16 17 22 23 21 24 22 27 31 31 31 31 33 34 41 42 41 42 46 45 46 48 49 50 50 50 50 51 53 54 54 54 55 54 55 56 57
51 52 52 52 52 52 52 52 51 51 51 47 45 30 30 35 30 30 34 31 33 34 36 37 38 37 38 38 37 39 38 36 36 37 38 32 29 26 25 14 12 11 16 17 21 19 16 13 13 15 16 18 19 23 24 21 21 27 26 30 31 32 34 34 36 41 41 41 42 44 45 46 47 48 50 50 50 50 51 53 54 55 55 55 54 54 56 58
52 52 52 52 52 52 51 51 50 50 48 39 34 38 33 33 32 32 32 32 31 33 33 33 33 35 36 37 38 40 37 37 36 37 34 28 29 26 18 14 11 11 17 16 14 19 18 15 14 15 21 22 24 25 24 24 23 19 26 29 29 32 33 32 34 40 39 40 41 44 44 46 48 49 49 49 49 50 51 53 55 55 55 55 54 54 56 58
51 51 51 52 52 51 52 50 50 49 43 41 40 40 38 32 32 32 36 34 30 30 32 32 31 30 31 29 35 39 38 38 37 36 36 27 27 28 18 18 12 11 10 14 14 14 15 16 21 16 20 21 19 23 23 21 20 19 21 26 29 31 32 32 32 36 37 41 43 44 44 44 46 46 46 48 50 50 51 53 55 56 56 56 55 55 57 58
51 51 52 52 51 51 50 49 44 43 44 38 41 43 39 32 35 31 35 33 31 32 33 31 32 33 30 35 40 38 38 38 38 38 33 26 27 21 21 19 15 12 11 14 15 14 14 15 20 22 19 20 20 20 22 21 21 17 16 20 24 29 31 33 35 34 35 39 43 42 40 41 45 45 45 46 48 50 51 51 53 55 56 56 55 55 57 59
51 51 52 52 52 51 49 39 41 45 41 29 25 37 34 32 33 32 36 32 26 28 33 28 35 31 36 34 34 33 33 30 34 36 28 27 29 24 20 16 17 15 12 13 12 15 13 14 14 12 17 22 21 20 22 22 23 20 21 16 20 27 31 33 34 33 35 34 38 42 37 38 42 43 44 45 47 49 50 51 52 55 56 56 56 56 57 58
51 51 52 52 52 50 40 31 45 42 23 16 36 38 34 34 38 33 32 30 26 31 31 33 28 26 36 33 33 30 24 25 29 32 31 36 24 24 19 18 16 18 15 17 20 11 13 11 11 13 15 19 22 21 21 21 19 18 19 16 16 20 27 33 34 33 34 39 40 41 41 38 39 42 44 45 45 47 49 49 51 53 55 55 56 56 57 59
52 52 52 51 51 50 47 47 46 42 32 26 41 37 36 35 37 35 34 25 21 31 35 30 29 32 30 30 29 25 27 29 25 27 28 29 24 21 20 16 11 11 14 12 9 15 11 11 10 10 12 14 16 21 23 19 17 18 19 16 14 17 25 32 33 33 34 35 38 40 43 38 38 42 44 45 44 45 47 48 49 51 54 55 56 56 58 59
52 52 51 51 51 50 49 48 46 41 43 42 39 38 37 37 35 35 31 18 24 31 28 28 27 30 27 29 26 25 27 29 26 27 26 27 22 21 20 16 11 9 9 11 10 10 16 11 11 11 10 10 16 20 21 17 17 17 18 17 17 20 25 31 33 33 37 35 36 39 38 34 36 44 42 44 44 44 45 47 48 50 53 55 56 56 58 59
51 51 51 51 50 47 46 48 46 43 42 42 41 40 39 39 32 27 28 22 30 20 29 25 25 24 26 26 26 27 24 26 27 26 23 23 23 21 22 16 10 9 8 12 10 10 11 29 23 14 12 12 17 17 19 17 18 18 15 13 16 27 32 39 38 35 35 32 34 38 38 35 32 40 41 42 42 44 44 46 47 49 51 55 56 56 58 60
51 51 51 51 47 47 45 39 38 40 43 42 40 38 37 36 33 28 23 25 26 23 26 23 22 24 23 23 21 26 25 26 26 22 20 22 20 20 19 28 16 12 11 8 6 10 10 9 11 18 28 22 16 16 19 18 18 18 17 16 16 19 32 35 32 36 30 29 33 36 37 36 32 35 42 42 44 44 44 44 45 46 49 53 55 56 57 59
50 50 51 49 49 48 42 30 30 40 42 41 41 38 25 22 26 23 21 31 24 26 21 22 24 23 22 22 23 23 23 25 24 21 19 18 18 18 16 17 16 14 12 12 6 15 6 6 10 10 31 15 17 17 18 18 18 14 17 18 14 22 25 29 25 28 29 29 31 32 36 37 35 36 40 42 42 43 44 44 44 46 48 51 54 56 57 59
49 49 49 50 50 48 48 43 38 40 43 40 44 32 25 25 22 23 23 26 20 27 23 26 22 21 21 21 21 24 25 21 23 20 19 19 18 18 17 16 16 15 15 23 11 8 6 11 8 9 10 23 15 12 13 13 18 13 13 21 15 17 17 22 26 25 25 28 27 27 36 35 36 36 39 42 42 42 43 44 44 45 47 50 52 54 56 58
49 49 48 48 47 48 48 49 47 46 43 51 37 28 28 24 22 43 21 22 17 23 25 23 21 20 19 18 19 24 22 23 22 20 18 18 17 17 17 16 17 15 16 27 12 11 6 4 5 7 9 15 17 14 13 16 17 14 16 15 18 20 18 15 22 25 25 27 30 28 34 35 32 35 36 40 42 42 43 43 44 46 47 49 51 53 55 57
49 48 46 45 47 47 48 47 47 47 44 40 27 24 20 20 26 25 29 26 24 24 22 23 20 19 17 19 21 21 23 23 23 17 16 16 16 16 16 15 16 16 18 15 20 22 10 11 16 15 11 15 12 17 16 15 14 15 17 19 19 15 28 11 22 26 26 24 23 32 34 33 33 38 45 44 39 42 44 44 46 47 48 49 50 52 54 57
47 43 45 44 46 46 47 47 46 45 40 26 15 19 17 20 19 24 21 26 27 24 22 20 22 18 18 19 24 18 22 23 23 19 20 15 16 17 16 16 15 16 15 14 22 15 19 13 15 17 17 11 12 17 17 14 13 18 16 14 15 20 16 29 35 35 29 24 19 33 29 29 35 29 34 47 41 41 45 44 44 45 47 49 50 51 53 56
45 45 41 44 45 46 47 47 46 44 36 13 8 6 14 17 22 25 37 29 24 23 22 18 21 20 20 17 19 18 19 22 22 21 22 21 16 16 16 15 15 15 16 15 20 20 15 18 19 15 12 14 13 14 14 15 16 16 14 14 23 28 24 21 12 26 26 19 23 27 21 24 25 27 42 45 43 44 44 44 44 44 46 48 49 51 53 55
45 45 47 47 46 46 47 46 45 42 25 9 5 34 23 11 18 20 23 20 22 22 21 23 21 22 21 26 18 19 19 18 20 22 20 17 16 18 15 16 15 14 16 17 14 19 17 15 15 16 13 14 16 14 12 13 17 13 12 17 14 20 18 23 26 20 18 19 20 23 27 32 27 29 37 38 44 45 44 44 44 45 46 46 48 50 52 54
45 44 35 39 46 47 47 46 44 34 21 8 7 17 30 17 22 21 24 24 24 21 18 21 20 24 23 19 20 18 18 16 20 19 20 19 17 19 15 15 15 15 15 16 14 24 19 14 16 19 13 14 17 12 11 10 14 18 16 14 24 19 27 20 19 23 22 20 22 19 24 21 34 32 34 34 44 45 44 44 44 44 45 46 47 49 50 53
43 34 23 45 46 47 47 46 40 29 15 5 8 8 23 21 17 17 15 15 17 21 20 21 21 19 20 19 20 17 18 17 15 16 18 19 17 19 15 16 15 15 16 16 14 19 17 19 14 18 19 16 13 15 11 11 12 12 13 17 22 26 25 23 30 23 18 24 22 21 17 26 32 40 37 35 42 46 45 45 45 45 45 46 47 48 50 52
44 35 31 46 46 46 46 43 31 22 16 28 19 16 14 12 19 20 20 21 18 21 17 19 21 19 19 18 17 17 17 18 18 16 15 14 16 17 17 16 16 15 16 16 15 16 20 18 14 16 17 16 15 17 12 12 11 11 11 12 13 17 18 16 17 24 28 21 19 17 15 26 31 48 44 39 42 47 46 45 45 45 46 47 48 48 49 51
41 21 24 46 45 46 36 34 33 36 32 23 12 19 16 26 19 16 16 17 17 16 20 18 17 17 18 18 18 20 20 18 17 16 16 14 14 15 17 18 17 16 15 16 15 17 18 29 18 14 16 16 16 16 17 13 12 11 11 10 13 18 20 18 15 19 24 24 30 27 19 24 41 46 47 44 44 46 47 47 46 46 46 47 47 48 49 50
38 32 32 37 40 39 33 34 44 44 29 31 34 27 27 24 28 26 22 22 16 18 18 17 17 19 19 19 19 18 19 17 17 15 16 15 14 14 15 17 18 16 16 16 16 16 44 21 20 19 22 23 21 21 22 19 13 13 12 14 14 17 17 16 21 28 19 27 24 25 24 27 40 50 50 46 45 45 47 47 46 46 46 47 47 48 50 50
41 41 41 43 45 40 32 31 36 38 37 36 35 34 32 28 26 25 21 20 18 17 11 14 18 18 18 22 20 18 25 20 20 19 19 22 19 15 14 16 18 16 15 18 16 31 21 25 20 17 16 15 16 18 15 22 14 16 15 14 13 15 16 26 31 30 22 24 24 23 20 29 40 51 44 45 44 45 46 47 47 46 47 48 48 49 50 51
42 43 42 43 49 38 29 30 33 32 39 37 35 34 33 33 30 29 27 25 24 21 19 18 16 17 19 24 21 20 19 18 21 19 22 32 32 31 17 14 17 16 16 24 47 22 17 23 23 14 16 15 15 14 15 14 17 16 23 15 15 13 17 24 19 23 18 30 31 25 27 32 36 42 41 43 44 44 46 46 47 47 48 48 49 50 51 51
41 35 37 35 32 35 38 37 28 28 34 31 34 33 33 32 32 31 27 24 25 23 21 19 19 18 19 23 24 23 20 22 22 29 34 33 35 36 36 32 15 16 43 54 47 23 26 32 23 19 16 17 19 25 27 32 24 13 13 13 12 13 16 19 28 23 18 28 29 30 32 32 35 37 37 38 42 42 44 46 47 47 49 49 50 50 51 52
42 40 34 31 33 32 30 32 29 32 32 32 33 36 35 34 35 35 36 32 26 23 22 20 20 18 18 18 22 25 25 29 33 33 35 32 38 38 37 40 38 44 52 42 48 20 34 23 21 26 22 19 18 23 21 25 14 13 12 12 13 12 16 22 21 19 29 28 24 35 38 33 34 36 37 38 39 42 44 45 46 47 49 50 51 52 58 54
39 43 35 38 32 29 29 29 32 34 34 35 36 37 34 33 34 35 32 33 33 28 24 25 19 19 18 21 30 29 39 42 40 31 36 41 41 36 34 35 35 44 45 38 37 20 28 18 18 19 17 17 15 14 14 25 17 14 12 12 12 13 18 18 23 26 31 23 23 33 38 35 34 35 36 36 37 40 42 44 45 47 49 51 53 54 55 54
44 41 40 41 36 34 35 34 37 38 36 35 38 40 35 33 30 29 28 30 34 28 25 27 27 34 31 19 30 36 42 34 32 47 45 40 41 40 35 35 34 34 32 32 35 36 18 16 22 18 15 15 15 13 13 14 16 17 15 13 12 12 15 16 19 30 25 30 30 34 38 36 34 35 35 36 38 40 42 45 47 47 48 51 53 54 54 55
39 39 39 41 41 40 39 37 35 35 34 38 42 39 34 32 27 25 25 32 37 37 40 39 38 39 38 36 35 34 39 32 31 31 46 44 35 42 37 36 33 34 32 33 33 36 25 24 32 19 18 15 13 14 13 13 14 13 14 15 13 13 14 15 20 32 35 34 37 34 37 37 37 36 35 40 43 43 43 44 44 46 48 51 53 54 55 55
42 42 41 40 39 38 41 37 35 35 33 37 37 36 36 33 30 31 31 30 30 36 39 39 39 39 39 39 43 42 44 45 45 41 41 40 35 40 37 37 36 33 34 34 35 39 33 34 35 25 19 17 14 13 13 14 16 14 14 16 16 15 15 22 24 33 30 32 38 38 37 35 36 42 42 41 42 42 41 43 44 45 47 51 52 54 55 55
43 43 43 41 38 43 35 35 33 34 34 38 36 36 35 34 35 34 32 40 41 39 40 40 40 42 41 41 41 42 37 38 37 36 35 35 36 36 36 35 34 35 38 36 39 36 32 30 28 26 19 20 16 16 14 18 23 18 18 17 19 24 30 31 36 38 35 34 34 33 34 36 36 43 38 41 39 39 40 41 43 45 47 51 52 53 54 55